{"data":{"norad_id":62781,"intl_designator":"2025-015Z","name":"STARLINK-33588","alt_names":[],"object_type":"PAYLOAD","status":"ACTIVE","operator":null,"country":"US","launch_date":"2025-01-21","launch_site_code":"AFWTR","launch_vehicle":null,"mission":null,"orbit_class":"UNKNOWN","rcs_meters":null,"size_class":null,"mass_kg":null,"dimensions":null,"purposes":["comms"],"wikipedia_slug":null,"has_3d_model":false,"image_url":null,"decayed_at":null,"tle_current":{"epoch":"2026-05-24T21:34:44.063040Z","epoch_age_seconds":87352,"freshness":"FRESH","line1":"1 62781U 25015Z   26144.89912110  .00023091  00000+0  69245-3 0  9998","line2":"2 62781  53.1608 325.9590 0000587  90.2389 269.8681 15.34399238 76182","mean_motion":15.34399238,"eccentricity":5.87e-5,"inclination_deg":53.1608,"raan_deg":325.959,"arg_perigee_deg":90.2389,"mean_anomaly_deg":269.8681,"bstar":0.00069245,"rev_number":7618,"period_min":93.847804687192,"perigee_km":462.30394757758,"apogee_km":463.10706248767,"semimajor_km":6840.8425050326,"source":"CELESTRAK","updated_at":"2026-05-25T13:38:19.748385Z"}}}